Wind_Speed
14 15 15 15 16 16 16 17 17 16 14 13 15 15 14 14 15 16 17 19 20 20 21 22 24 26 27 29 31 33 35 36 35 34 32 33 33 32 31 29 29 32 35 35 36 37 36 35 35 35 35 35 36 37 41 43 42 39 36 35 32 27 23 16 10 12 20 23 21 20 18 17 18 20 20 20 20 19 19 19 19 20 22 23 24
14 15 15 16 17 17 16 16 17 17 15 14 14 14 13 13 13 15 17 17 17 17 18 19 21 23 25 27 30 31 33 35 36 34 31 31 32 31 29 28 28 31 33 32 32 34 35 35 36 37 36 36 37 38 41 43 41 39 38 34 31 28 26 24 20 14 17 24 24 21 21 20 21 23 22 23 23 23 21 20 19 20 21 22 23
13 14 15 16 17 16 16 15 15 15 14 13 14 14 15 14 13 14 15 15 14 15 17 18 20 21 22 25 28 29 31 34 35 33 30 29 29 29 27 26 26 29 32 31 30 31 32 33 35 38 37 36 38 40 42 43 42 39 38 35 31 30 29 30 27 19 16 22 24 21 21 21 22 23 23 23 23 23 22 20 18 18 19 19 20
12 13 15 16 15 16 16 16 15 14 13 13 15 17 17 16 14 14 13 13 15 16 18 19 20 22 23 24 25 26 28 30 31 31 30 29 28 27 25 25 24 25 27 28 29 30 31 33 36 38 37 37 38 40 41 42 42 40 38 35 32 30 28 26 25 22 17 19 25 27 23 21 22 22 21 21 21 22 22 21 19 19 19 19 20
11 13 15 16 15 16 16 17 16 14 12 12 14 18 19 17 14 13 12 14 16 18 19 20 21 23 23 23 24 24 25 26 28 29 28 25 25 25 24 25 26 27 28 28 29 29 32 36 38 38 37 36 38 39 40 42 42 40 38 36 32 29 26 23 23 25 23 22 28 31 26 22 22 22 21 21 21 22 22 22 22 21 20 21 21
11 13 15 16 15 15 16 17 18 16 14 13 14 17 19 18 15 13 13 15 18 20 20 21 22 23 22 22 24 23 22 22 23 24 23 22 23 25 26 28 29 30 32 33 33 32 33 36 38 39 39 40 40 39 39 41 42 40 38 36 32 27 24 24 23 25 27 29 30 30 27 24 23 23 24 23 22 22 22 23 22 21 20 22 21
12 13 14 16 15 14 14 16 18 16 14 14 14 15 18 19 18 16 15 16 19 21 21 22 22 22 21 20 20 19 18 17 19 21 22 23 25 27 28 29 31 33 34 35 36 35 35 37 38 39 41 43 44 42 41 42 41 40 40 38 35 30 26 27 27 25 27 29 27 26 28 26 24 25 27 24 21 21 21 20 21 21 20 20 21
12 12 13 15 15 13 13 14 15 14 13 13 14 15 17 18 19 18 17 18 20 22 22 22 22 22 21 18 16 16 16 17 21 24 26 26 25 25 26 28 31 33 36 37 37 36 37 38 40 41 42 43 45 45 45 43 40 39 39 38 35 32 30 29 27 25 25 24 23 24 26 24 24 25 25 21 19 21 21 19 20 21 21 20 20
11 11 13 14 13 13 12 13 13 12 13 15 16 16 18 19 19 19 19 19 21 20 20 21 22 22 21 18 16 15 15 16 17 18 20 23 24 25 27 29 31 32 34 36 37 36 37 38 40 42 42 43 45 47 47 45 41 39 38 36 34 33 31 28 25 24 23 21 21 23 21 21 23 22 20 20 20 21 21 18 18 20 21 20 20
10 11 13 13 12 12 12 12 13 13 14 17 18 17 19 20 20 20 21 21 21 20 20 21 21 21 21 19 18 16 14 15 15 15 19 22 22 24 26 28 30 31 32 33 34 34 35 37 39 42 44 43 43 45 46 46 44 43 41 39 37 34 31 28 26 25 23 20 21 22 17 18 23 23 23 23 22 22 21 18 18 18 16 15 17
11 12 13 12 10 11 12 12 13 15 16 18 18 18 20 21 19 19 21 22 22 21 21 21 20 19 19 20 19 16 14 17 20 20 23 23 20 20 24 26 27 29 29 29 32 32 33 35 37 40 41 40 39 40 42 44 44 44 43 41 40 38 35 31 28 27 25 22 22 22 18 19 24 26 25 24 22 22 22 20 19 17 13 11 10
11 13 12 10 9 11 12 13 14 16 16 17 18 18 20 20 20 20 21 21 22 22 21 20 18 18 19 21 20 17 17 22 25 24 24 24 22 21 22 23 23 25 26 26 29 30 31 33 34 35 37 36 35 35 37 38 39 40 39 38 38 37 36 35 32 30 29 25 22 23 23 23 25 26 25 23 23 23 22 21 19 17 15 14 13
10 11 10 9 9 10 12 14 15 16 16 17 18 19 19 20 22 22 22 21 21 21 20 19 17 16 18 21 21 19 21 26 26 26 28 26 22 21 21 20 20 20 21 22 25 26 27 28 28 29 32 33 32 32 32 32 32 33 33 32 33 33 33 35 34 33 33 29 26 27 29 28 26 25 25 24 23 21 20 20 19 17 17 18 18
9 10 9 8 9 11 13 15 16 17 17 17 18 19 19 21 22 22 22 22 21 19 19 18 16 15 17 18 20 20 22 26 27 27 30 28 23 20 19 17 16 15 15 17 21 25 26 27 27 27 29 31 31 31 31 30 29 29 30 30 32 32 33 34 33 31 32 32 32 33 33 30 25 23 23 23 22 20 19 20 19 18 19 18 16
10 11 10 11 12 12 14 16 17 19 19 18 18 19 20 21 23 22 21 21 19 16 16 16 14 14 15 16 18 20 21 26 29 28 30 29 22 18 16 12 10 9 7 9 15 21 24 26 27 27 27 28 29 30 30 28 27 28 28 30 31 31 32 33 32 31 33 36 37 35 29 24 20 18 19 20 20 20 18 16 15 16 17 15 10
12 12 11 13 14 15 15 16 19 21 21 19 19 20 20 20 21 21 20 20 17 12 12 13 12 13 14 14 17 20 21 26 29 29 31 29 19 15 13 7 6 4 3 6 11 17 21 22 23 23 24 25 26 27 27 26 25 26 27 29 30 30 32 32 31 31 34 36 33 27 22 18 15 13 13 14 15 16 14 11 10 11 12 10 7
11 11 12 13 15 16 17 19 21 22 22 20 20 20 19 18 18 20 19 19 16 11 9 10 11 11 13 14 16 19 21 25 28 28 31 30 21 15 10 4 6 5 5 8 11 15 17 18 20 20 20 21 22 22 21 21 22 23 24 26 26 27 28 29 29 30 31 29 24 20 18 16 15 13 12 12 12 12 12 10 11 12 11 7 5
11 12 12 13 15 16 19 21 22 22 20 19 18 18 17 16 17 18 18 19 17 12 8 9 10 10 12 14 14 17 20 23 25 26 29 32 28 22 17 16 15 13 12 11 12 15 17 17 18 17 16 15 17 18 18 19 20 20 20 20 21 20 21 24 26 27 25 22 19 17 16 16 16 15 13 12 10 10 11 11 10 10 10 10 7
11 11 11 12 13 15 18 21 20 18 16 16 15 15 16 16 16 18 19 20 19 12 8 8 9 10 12 13 12 14 18 20 22 24 26 30 31 27 23 22 20 19 21 20 18 19 21 19 18 18 17 15 15 16 15 15 16 17 18 19 18 16 17 19 22 23 22 19 18 17 16 15 14 13 13 12 10 10 11 11 10 9 10 12 10
12 11 10 11 13 14 16 17 15 13 13 14 14 14 15 17 17 19 21 19 16 13 8 8 9 10 10 11 11 12 15 18 19 21 23 25 28 29 28 25 22 20 23 26 26 27 27 25 23 20 18 16 14 13 11 10 11 13 15 16 15 13 11 12 13 16 18 17 16 15 14 12 12 11 10 10 9 9 9 10 11 11 11 12 12
13 12 11 11 12 12 12 12 12 10 11 12 13 13 15 18 19 20 20 17 14 14 10 6 8 11 10 9 11 10 11 14 16 18 20 22 24 26 26 25 22 22 25 27 28 29 28 26 24 20 17 16 15 14 12 9 9 9 10 11 12 10 9 8 8 9 12 13 12 11 11 10 9 9 9 9 9 10 10 10 11 12 14 15 15
12 10 10 10 11 10 9 11 12 11 11 12 13 15 16 18 20 19 16 14 13 13 12 9 7 9 9 7 9 10 9 11 13 15 16 18 19 20 21 21 20 22 25 26 26 27 26 25 23 21 20 19 17 16 15 13 12 12 12 11 10 8 9 10 9 8 9 9 8 8 8 7 6 5 5 5 6 7 8 10 11 12 14 16 16
12 11 11 11 9 8 9 10 12 12 12 12 13 15 15 16 18 15 11 11 12 12 11 11 11 11 9 6 6 9 9 9 11 12 13 15 15 16 17 18 18 20 23 23 22 22 22 21 21 21 21 20 19 18 17 15 14 13 12 10 7 4 5 7 8 9 9 9 8 8 7 7 7 6 5 4 3 2 3 4 7 9 11 12 14
12 11 11 10 8 8 10 10 11 11 10 9 10 12 13 14 16 14 10 10 11 11 11 11 11 12 10 5 4 6 8 8 9 10 11 13 14 14 14 15 15 16 18 18 17 17 17 17 17 17 18 18 17 17 16 15 14 13 11 9 7 4 3 2 4 6 6 7 9 10 8 7 7 5 4 3 2 1 2 2 3 5 6 7 11
12 10 9 8 8 10 10 7 7 8 8 8 9 11 12 13 14 14 14 12 10 10 11 10 9 9 9 7 5 5 5 6 7 9 10 12 13 13 12 11 11 12 13 12 11 11 13 14 14 14 15 16 15 14 13 12 11 11 10 9 9 7 5 4 2 4 4 5 8 9 7 7 6 5 4 3 3 3 1 1 2 2 4 5 7
9 9 8 8 9 8 5 2 3 6 8 8 10 11 12 14 14 16 17 15 12 12 12 11 8 8 8 8 7 6 5 6 6 7 8 10 11 12 12 11 10 10 10 10 8 7 7 9 9 9 10 12 12 12 12 10 9 9 8 8 7 6 4 4 4 3 5 6 6 7 7 5 4 4 4 4 4 5 5 4 4 4 4 4 6
8 8 7 6 6 3 2 1 2 6 8 9 10 12 13 13 14 16 18 18 16 16 15 13 10 8 8 10 8 7 6 7 8 7 7 7 9 10 11 11 10 9 8 8 7 6 5 5 6 6 7 8 9 10 9 8 8 7 7 6 5 3 3 2 3 3 4 4 4 5 5 5 4 4 4 5 5 6 6 6 6 7 7 7 7
9 9 5 4 2 2 1 2 3 6 8 9 12 13 12 12 14 15 17 19 19 18 17 16 13 10 9 10 8 7 7 7 7 8 7 7 8 8 9 9 9 8 8 8 7 6 5 4 5 5 6 7 8 8 8 7 6 6 6 6 6 4 2 1 1 2 3 3 2 3 4 4 5 4 4 4 4 4 4 4 5 6 6 7 7
10 9 5 4 2 1 1 2 3 6 9 11 12 13 11 11 13 14 16 18 20 20 19 18 15 12 11 10 8 8 9 8 7 7 7 7 8 8 8 8 8 8 7 7 7 6 6 6 6 7 7 8 8 8 7 5 5 5 5 6 6 5 2 1 1 2 2 2 2 3 4 5 4 3 2 3 2 3 4 4 4 5 4 5 8
9 10 8 7 4 2 2 2 4 7 10 11 12 13 12 12 13 13 14 17 19 19 19 19 16 14 13 12 11 10 10 9 8 7 6 7 7 7 7 8 8 7 6 5 6 7 7 8 8 8 8 9 10 10 9 8 7 7 7 6 5 4 4 3 3 1 0 2 4 6 6 4 3 1 1 1 1 2 3 4 5 6 5 6 8
7 8 8 7 5 3 4 4 5 8 10 11 12 12 14 17 17 14 13 15 17 17 18 19 19 16 13 14 14 12 11 10 9 8 8 7 7 7 8 7 7 7 6 6 6 7 8 9 9 10 10 11 12 13 13 13 12 11 10 9 7 7 7 7 6 4 3 3 5 6 5 4 3 2 1 1 1 1 1 2 3 4 5 5 7
6 5 5 5 4 5 6 7 8 9 11 12 11 11 14 17 18 17 15 14 15 16 16 18 20 19 15 11 13 14 13 11 10 10 10 10 8 8 7 7 7 7 6 6 7 8 9 10 11 12 12 13 14 16 16 16 16 14 12 11 10 9 8 8 8 6 6 6 6 7 6 6 5 4 3 2 2 1 1 1 2 2 3 3 4
6 5 5 5 6 6 8 9 11 12 12 11 10 11 14 15 16 17 17 16 15 16 16 17 17 19 18 15 11 11 13 13 11 10 10 11 11 10 8 8 7 7 7 7 8 9 9 11 12 13 13 14 15 16 16 15 15 16 15 13 11 10 9 9 9 10 9 9 9 9 8 7 6 5 4 3 2 1 1 1 1 2 2 2 3
8 8 8 7 6 7 7 8 9 10 11 9 8 11 14 15 15 14 13 14 16 17 16 16 17 19 20 20 18 14 9 10 11 11 11 10 11 11 10 9 9 8 8 7 7 8 10 11 13 15 15 16 16 16 13 10 8 10 12 11 9 8 8 8 11 12 12 12 12 11 10 8 7 6 5 4 3 1 2 2 2 2 0 0 1
9 9 8 7 7 7 5 4 5 6 7 7 8 11 13 14 15 13 10 11 14 15 15 15 17 19 21 22 23 21 16 10 9 11 12 12 12 11 12 11 11 10 9 9 8 10 11 13 15 17 17 17 16 14 10 7 8 6 4 4 5 3 3 4 8 11 13 14 15 14 12 10 8 7 6 5 4 3 2 2 4 4 4 4 3
8 7 6 5 5 4 2 2 3 4 5 7 8 10 11 13 13 12 11 12 13 14 14 15 16 17 19 21 23 22 20 16 12 10 11 12 13 13 14 14 13 12 12 11 10 11 13 14 16 19 19 17 15 12 9 6 6 7 6 3 1 3 3 4 6 9 12 13 14 15 13 10 9 9 7 6 5 5 4 3 4 4 4 5 5
5 5 4 4 4 2 1 3 5 7 8 9 9 10 12 14 15 15 15 16 16 16 16 18 19 20 20 21 20 20 18 16 15 15 15 14 13 14 14 14 14 15 16 16 15 15 15 14 15 18 19 18 16 14 11 8 3 3 5 5 3 3 3 4 4 6 8 10 12 13 12 10 9 9 7 6 7 6 5 5 5 6 6 6 7
4 5 6 6 5 4 6 9 11 11 11 11 12 12 14 15 17 17 18 18 18 18 19 21 22 23 23 22 19 17 16 16 17 19 21 20 19 19 18 17 15 15 16 17 17 17 17 16 15 16 17 17 16 15 12 7 3 1 1 3 5 5 4 4 4 3 4 6 9 10 10 9 8 8 7 7 7 6 6 7 7 7 7 8 9
3 5 8 9 9 11 13 15 15 14 14 14 14 14 15 16 16 17 18 19 19 19 19 20 21 24 25 24 21 18 19 21 21 22 23 23 23 23 23 22 22 20 19 18 17 16 16 16 16 15 14 14 14 14 12 8 4 2 1 2 3 3 2 2 2 3 3 3 5 6 6 7 7 7 6 6 6 7 7 8 10 9 9 9 10
9 9 11 14 17 18 19 19 18 17 17 17 17 17 17 17 17 17 18 19 18 18 18 19 20 24 26 25 22 21 21 22 22 21 22 23 24 24 24 23 23 22 21 21 20 18 16 15 14 14 14 13 12 12 12 11 10 8 7 6 5 4 2 1 2 3 4 3 2 2 3 4 5 7 8 8 8 8 8 9 10 10 10 9 10
14 15 17 19 21 21 21 21 19 19 19 19 19 19 19 18 18 17 18 17 16 16 16 16 18 22 25 24 23 23 23 21 20 21 22 23 23 24 24 23 22 21 20 20 21 21 19 17 16 17 17 18 18 17 16 15 14 14 14 14 13 11 9 8 6 4 2 1 2 3 4 5 6 8 9 8 8 9 9 10 11 10 10 9 9
21 22 22 23 23 22 22 22 20 20 21 20 18 18 17 16 16 15 15 15 14 13 14 14 15 18 21 22 22 23 24 22 21 20 21 22 23 24 24 24 23 23 22 21 21 21 22 22 22 22 23 22 21 20 20 20 20 20 20 19 19 17 16 14 12 9 5 1 2 4 5 7 8 9 8 8 8 8 9 10 10 10 10 9 9
25 25 25 25 25 23 22 21 20 21 20 18 16 15 14 14 14 13 13 14 14 13 13 13 13 15 19 21 22 23 23 22 21 20 20 20 22 23 24 24 24 24 25 25 25 26 27 29 29 28 28 28 26 25 24 23 22 22 22 22 22 21 20 18 16 13 9 4 1 4 6 7 8 8 8 8 8 8 8 8 9 9 9 10 10
27 27 26 26 25 24 23 21 20 20 18 17 15 14 13 13 13 13 13 13 13 12 12 12 12 14 17 20 22 23 22 21 21 21 21 21 21 22 23 23 23 23 24 26 27 27 28 30 31 31 31 30 30 29 28 27 26 25 24 24 24 24 24 23 21 18 14 10 4 3 6 8 8 8 7 8 8 8 7 7 8 8 8 8 7
26 26 25 25 24 23 23 21 20 19 19 19 19 17 16 15 14 13 12 12 12 12 12 12 12 13 15 17 20 22 22 21 22 22 22 22 23 23 23 23 22 22 21 22 24 25 26 28 29 29 30 31 30 30 30 30 29 29 28 27 27 27 27 26 24 21 17 14 9 4 4 7 9 9 9 9 9 8 8 7 6 6 7 7 6
25 25 24 24 23 22 21 21 21 21 21 21 21 21 20 19 17 15 13 13 12 12 12 12 12 13 15 16 17 18 20 22 23 23 23 23 23 24 24 24 23 23 21 20 21 23 25 26 27 28 29 29 29 29 29 29 29 29 29 29 28 28 26 25 24 22 20 17 13 10 6 4 6 9 10 10 10 9 8 7 7 7 7 7 8
25 25 24 23 22 21 19 18 18 19 18 19 19 20 20 20 19 18 16 15 13 13 12 13 13 14 14 15 15 16 17 19 21 22 23 23 23 23 24 24 24 24 22 20 20 22 24 25 26 27 26 27 27 27 27 28 28 28 28 29 29 28 26 24 24 23 22 20 17 15 13 10 7 6 7 9 10 11 10 10 9 9 9 9 10
25 25 24 23 22 21 19 18 17 17 16 16 17 17 18 19 20 19 18 17 16 15 14 13 14 14 15 15 16 16 17 19 20 21 23 23 23 24 24 24 24 24 22 20 21 22 23 24 25 25 26 26 26 27 27 27 28 27 27 28 28 27 26 24 24 24 23 22 20 19 17 15 13 10 9 7 8 10 12 12 11 10 10 10 11
25 24 23 22 21 19 18 17 17 17 16 16 16 16 16 17 17 18 18 17 16 15 14 13 12 13 13 14 15 17 19 20 21 21 22 22 22 23 23 24 24 23 21 20 20 22 23 23 24 25 26 26 27 27 27 27 28 28 28 28 28 26 25 24 24 24 23 22 21 21 20 19 17 15 14 12 10 9 9 11 13 13 12 11 12
23 23 22 21 20 18 16 16 16 15 14 14 14 14 13 13 13 13 15 16 17 17 15 13 11 12 13 13 13 16 19 20 20 20 21 21 21 21 21 22 23 23 21 19 20 22 23 23 23 25 26 26 26 26 26 27 29 29 29 28 28 27 26 25 25 25 25 24 23 22 22 22 21 20 18 17 15 14 12 11 11 13 15 15 15
22 21 20 19 17 16 14 14 13 12 12 12 12 12 12 13 13 13 13 16 18 19 18 16 15 15 15 15 14 15 17 19 19 18 19 19 19 19 19 19 20 20 20 19 19 20 20 20 22 24 26 26 24 24 24 26 28 29 29 29 29 29 29 29 28 27 26 25 24 23 22 22 22 22 22 21 19 18 17 16 14 13 14 17 18
Wind_Direction
356 348 346 348 348 349 349 350 352 349 345 338 330 326 323 321 322 321 319 321 320 315 312 309 306 301 293 284 276 273 272 269 265 260 256 253 250 248 250 248 237 232 235 235 230 227 228 229 235 240 236 229 228 230 233 236 238 239 239 238 238 235 227 223 231 257 264 262 258 255 251 248 250 255 260 262 259 259 261 263 262 263 265 267 268
357 350 346 346 346 346 347 351 355 353 350 347 341 334 328 325 324 322 321 321 318 316 315 314 313 308 299 290 281 272 268 267 265 260 255 254 254 252 251 245 236 232 235 237 232 227 227 228 232 238 237 232 230 231 231 233 234 235 236 235 234 231 224 224 228 237 257 261 258 255 253 250 252 257 259 259 261 264 266 267 266 267 269 270 268
358 353 347 347 347 345 343 347 353 353 351 351 351 347 340 334 329 324 320 318 317 319 318 317 317 314 307 300 292 280 269 264 263 259 253 253 255 254 250 242 237 237 238 240 238 230 226 227 230 235 236 233 231 230 230 231 231 232 233 231 230 229 224 223 225 229 248 259 259 260 260 256 255 258 260 262 264 267 268 269 268 268 270 270 268
1 357 350 347 347 347 346 347 348 347 346 349 350 347 342 338 332 324 317 317 321 323 322 322 322 320 315 307 301 290 274 267 266 261 255 252 252 253 251 245 242 241 239 239 238 233 228 228 231 233 232 230 231 230 228 229 229 230 230 229 227 229 227 221 221 227 240 256 260 261 262 260 260 261 262 265 267 266 267 269 269 269 269 268 267
359 354 350 347 346 348 350 348 345 341 337 341 342 339 337 335 328 319 312 314 321 324 325 326 327 326 321 314 306 291 271 263 263 262 258 253 251 251 252 252 252 251 249 246 243 239 233 229 229 228 225 225 228 229 227 227 227 227 227 227 225 225 225 221 219 224 231 244 254 257 258 259 261 264 265 265 265 265 268 270 270 270 270 267 264
355 351 347 347 345 344 345 345 343 337 329 330 333 331 332 333 327 316 308 311 317 322 326 328 329 328 326 323 318 303 278 260 255 256 257 258 259 260 260 260 260 258 255 252 248 244 237 230 227 225 222 222 225 226 225 225 225 223 223 224 222 220 221 223 223 224 229 237 245 252 256 256 259 264 266 264 263 266 271 273 271 270 270 269 264
347 344 342 345 346 341 339 340 341 337 331 329 331 330 331 334 332 323 312 309 313 316 323 329 334 335 332 329 330 324 304 278 257 251 257 263 266 267 267 266 264 260 256 252 247 243 238 232 228 224 221 220 221 221 220 220 220 220 220 220 221 221 222 227 228 224 226 233 239 246 252 256 259 263 267 267 264 265 268 269 270 270 267 265 262
338 337 337 342 344 340 336 337 340 342 339 335 330 328 328 331 331 325 315 311 312 314 322 331 337 340 339 335 334 333 320 295 269 255 259 266 266 267 270 269 267 264 259 253 247 242 237 232 227 224 221 218 217 215 214 214 214 215 218 218 218 219 222 225 226 223 223 228 235 241 248 255 259 263 267 266 257 257 261 260 264 269 267 263 261
333 330 335 340 341 338 334 332 338 345 348 343 334 325 323 325 326 324 321 317 314 314 323 332 337 340 342 343 341 337 329 312 289 274 278 276 266 266 274 274 273 272 265 255 247 241 236 230 226 223 221 219 217 216 215 214 213 212 214 215 214 215 218 220 220 220 221 224 231 237 242 250 255 259 260 252 245 252 260 259 260 267 267 263 264
330 326 330 338 340 336 331 325 329 340 346 346 342 333 327 324 323 324 324 321 317 317 323 329 335 341 343 344 345 343 339 332 327 329 324 303 274 266 275 279 278 277 269 254 245 240 235 230 225 222 221 219 217 217 217 215 215 215 215 214 213 211 211 213 215 217 219 220 226 231 232 240 247 250 249 247 247 254 257 253 255 262 263 262 266
326 323 323 336 341 337 332 323 323 331 337 340 343 341 334 329 326 324 324 322 319 320 321 324 332 342 345 345 344 342 347 351 350 348 339 325 303 282 278 279 281 283 275 254 241 237 233 229 224 219 217 215 213 212 214 214 214 215 216 218 217 215 213 211 209 212 215 217 223 226 224 232 242 245 245 247 250 252 252 250 250 252 249 246 255
323 321 319 329 339 340 336 327 324 329 332 336 339 338 334 331 329 325 323 322 320 319 320 322 330 341 346 349 349 349 358 0 356 350 341 333 324 307 291 283 284 291 285 260 239 232 228 223 217 212 208 206 204 205 207 209 211 212 214 217 219 220 221 219 215 212 212 212 219 225 224 229 237 239 240 243 246 246 247 249 248 245 241 236 236
325 322 315 319 335 346 342 334 332 332 332 335 337 336 333 331 330 328 324 321 319 318 320 322 328 341 350 354 357 0 2 358 354 352 346 338 329 319 306 294 288 292 289 264 236 223 217 208 199 197 198 198 197 197 199 201 204 209 211 213 218 220 223 225 224 221 217 215 218 225 228 228 232 239 243 243 242 242 244 246 245 242 237 237 239
326 322 315 321 336 344 342 338 337 335 334 335 335 336 334 330 330 329 326 323 319 315 318 321 327 341 351 357 2 4 2 359 358 358 354 348 337 324 311 297 289 289 283 258 228 211 203 193 184 183 187 191 194 198 202 203 205 209 211 213 217 219 219 222 223 224 227 227 225 227 231 231 234 246 252 247 242 243 242 241 241 240 237 238 244
315 312 315 328 337 340 340 338 335 333 333 333 333 335 333 330 332 334 332 330 324 313 314 321 327 341 352 358 3 4 4 4 5 3 359 354 345 330 317 295 278 276 260 227 206 196 189 184 182 180 184 191 197 201 207 212 214 215 215 215 217 218 218 220 219 220 226 229 226 226 232 237 242 254 259 253 246 243 240 241 246 245 238 233 236
308 309 314 326 332 334 333 331 329 330 330 328 328 333 336 335 339 343 342 339 332 314 313 325 332 344 354 359 3 4 5 8 10 10 6 3 355 341 330 291 236 224 202 179 171 175 178 177 177 179 185 195 202 205 209 214 214 212 212 215 217 218 218 220 220 219 221 222 224 227 234 238 238 241 249 249 242 236 234 240 241 226 217 215 218
299 305 310 320 327 329 326 325 326 327 327 326 326 332 338 339 344 349 351 348 337 314 305 327 337 349 358 0 2 4 6 10 14 16 15 16 17 13 16 74 135 129 150 167 163 164 169 172 174 178 185 193 198 200 202 204 200 197 199 202 204 207 212 214 215 215 217 219 223 229 234 233 226 223 230 235 233 227 221 220 216 203 195 196 214
296 303 306 313 323 328 327 326 328 330 330 330 331 336 341 342 344 351 356 354 344 321 295 317 338 351 2 4 4 3 6 13 18 19 21 26 26 24 41 75 89 87 95 116 137 145 150 158 163 163 163 170 179 183 186 189 187 184 183 182 182 187 197 202 204 206 210 216 221 224 225 225 224 223 224 224 222 217 210 210 210 204 203 208 211
292 299 300 307 318 326 328 328 333 338 340 339 338 340 344 345 346 352 355 354 353 338 298 299 332 350 0 7 8 5 6 13 19 21 23 29 30 27 36 56 66 70 74 76 81 97 110 121 128 128 124 128 142 155 164 173 178 176 174 171 169 173 186 197 202 203 204 207 212 215 217 220 222 221 222 224 224 223 223 225 222 214 216 221 211
284 288 296 307 316 321 326 333 341 345 345 344 341 342 345 346 346 349 350 353 5 7 330 297 315 336 352 7 8 2 5 11 17 22 23 25 30 34 38 42 47 58 68 68 66 71 80 86 92 98 102 103 110 121 132 151 166 170 169 164 156 155 168 184 194 199 202 204 206 208 209 211 214 219 226 232 231 230 236 240 239 234 235 240 233
278 285 299 308 312 318 329 344 348 343 342 345 344 342 344 344 341 341 342 349 10 24 16 336 315 321 334 1 6 357 356 4 12 20 24 24 29 37 43 45 46 55 63 66 65 66 68 69 72 79 87 88 88 91 93 104 129 138 138 138 137 140 152 161 168 182 192 196 198 199 202 209 219 230 242 248 247 249 251 249 247 243 238 242 245
272 283 300 302 306 321 338 349 351 347 343 344 343 342 343 345 345 342 340 347 1 15 27 29 5 343 337 350 5 2 353 354 3 13 22 27 30 36 46 52 55 61 65 65 65 66 67 65 64 67 71 72 72 73 73 75 89 98 98 102 110 121 137 146 145 148 163 174 177 179 188 196 200 207 220 229 237 249 254 251 249 248 243 244 248
270 278 292 296 307 331 339 340 347 348 343 340 345 350 350 353 357 356 349 348 349 357 16 27 25 18 7 349 356 6 0 354 358 7 17 24 26 30 41 50 56 65 72 74 73 71 69 66 63 62 63 63 63 62 62 63 70 77 80 85 92 107 136 140 128 120 132 149 151 143 142 145 143 142 148 158 168 190 212 232 243 245 245 246 245
272 274 286 295 314 338 333 330 342 351 353 356 2 6 4 2 4 4 354 342 341 350 5 13 14 17 13 350 336 0 4 2 7 16 20 21 21 24 34 45 52 61 73 80 78 71 64 60 58 59 60 59 56 56 57 57 59 60 62 64 61 55 49 53 79 95 108 127 133 127 120 123 129 128 126 117 89 135 195 224 249 237 231 242 248
270 263 274 295 321 336 336 337 353 4 13 16 11 7 3 359 360 360 352 342 334 340 352 0 5 5 0 342 321 331 352 357 5 21 27 23 19 20 26 36 44 51 62 72 72 66 60 56 55 58 58 55 51 48 49 52 55 55 55 56 60 63 55 33 61 123 124 115 115 115 113 116 118 106 97 89 68 64 94 259 249 203 195 215 230
255 244 258 298 328 345 356 17 19 11 14 13 5 359 355 351 353 358 358 354 341 330 334 343 350 349 347 340 318 302 320 332 336 357 18 22 22 22 23 27 30 34 42 50 55 57 56 51 50 51 50 49 48 45 40 40 42 40 44 53 61 70 62 22 15 84 105 101 102 106 108 108 104 92 81 84 88 87 89 107 134 134 140 178 186
224 221 252 307 341 24 58 34 343 0 8 9 3 0 359 357 358 2 5 3 352 337 330 333 335 333 333 336 325 303 304 315 321 333 348 2 12 16 17 20 23 25 27 32 34 34 30 29 29 25 24 29 32 32 31 30 25 19 18 26 34 57 81 45 355 21 56 63 77 97 100 96 96 96 89 90 102 106 100 103 112 113 122 150 160
204 210 244 309 345 105 88 322 324 352 3 2 358 359 4 7 6 7 9 6 358 347 334 327 326 326 322 322 321 308 300 307 321 336 340 344 352 356 356 1 7 13 18 19 18 16 9 358 349 344 349 358 4 10 13 12 9 4 359 358 357 359 29 62 340 15 41 37 48 87 91 84 84 85 80 79 93 107 110 107 98 96 114 138 130
208 212 233 285 289 202 240 300 334 354 358 355 351 353 357 359 359 3 6 5 2 358 348 334 323 318 313 311 307 300 298 306 322 335 338 340 342 343 343 343 344 350 1 4 359 357 354 346 336 330 331 336 341 347 352 349 340 330 327 335 346 350 342 297 308 13 44 55 101 124 115 97 85 80 70 55 59 94 117 126 115 100 95 107 103
221 218 238 272 285 242 233 288 339 347 349 345 341 341 343 345 349 357 0 358 360 4 4 357 343 322 303 297 299 300 301 307 317 329 337 339 339 338 336 335 333 332 335 338 335 334 336 337 333 329 326 324 322 319 318 313 305 299 298 300 304 306 295 279 272 271 277 111 124 131 128 113 107 116 99 78 66 91 105 118 123 119 112 105 98
227 230 248 270 288 264 245 280 319 331 337 336 331 331 336 340 345 351 356 355 358 5 12 12 8 354 321 296 291 295 302 308 312 321 331 334 333 333 331 331 332 328 322 316 310 305 306 310 313 315 314 311 308 307 306 301 296 294 294 290 283 276 270 265 259 252 243 206 159 147 141 134 144 167 142 116 118 78 74 99 109 104 106 104 89
242 247 248 261 282 264 249 269 297 312 324 325 324 330 338 340 342 345 349 353 360 9 16 15 14 13 3 330 299 290 293 301 308 314 322 326 327 328 325 324 325 323 317 310 301 293 289 288 291 298 301 300 300 302 300 294 289 286 284 282 280 275 263 252 245 240 238 228 206 184 169 160 162 166 148 127 132 122 62 70 75 78 102 112 87
254 254 252 269 280 265 257 273 292 305 313 316 322 336 343 343 340 339 343 348 356 10 22 24 20 19 20 15 354 314 294 292 296 303 310 317 322 325 323 317 314 314 314 310 306 303 301 296 295 297 298 299 303 309 308 300 291 283 277 274 275 275 269 253 240 235 234 234 231 221 206 198 192 180 166 161 188 247 317 343 20 45 80 112 98
266 264 268 274 273 264 266 281 293 303 309 315 331 346 349 348 344 340 343 352 359 8 20 26 26 27 27 27 26 16 341 306 297 297 300 304 310 316 319 316 310 305 305 308 313 319 319 316 314 313 310 307 308 313 321 334 327 295 277 271 272 278 276 257 240 236 236 235 233 230 226 226 224 213 196 182 184 229 275 271 278 305 313 146 120
264 263 264 259 250 251 265 292 314 321 326 339 354 357 357 356 353 349 354 8 14 18 23 23 22 24 25 24 25 25 21 3 329 311 306 308 310 310 312 316 319 317 315 318 325 331 331 329 329 329 326 320 316 313 319 352 13 4 323 270 246 242 249 235 228 231 235 234 230 229 229 226 218 208 195 176 163 162 193 240 259 255 243 255 251
266 271 264 244 235 242 284 4 21 24 26 28 22 15 15 18 17 13 20 33 37 35 30 25 20 19 21 21 19 19 21 23 17 1 345 336 331 324 315 312 313 316 319 323 327 332 335 335 336 337 337 333 326 317 307 315 352 19 31 36 193 200 191 190 207 222 230 231 228 224 219 209 198 195 194 191 189 193 206 232 242 227 222 236 226
252 257 236 209 199 189 111 95 90 78 64 56 51 45 43 42 40 39 42 47 48 43 35 30 26 22 20 19 18 17 20 29 38 41 36 27 13 360 346 333 324 321 323 326 328 329 331 334 340 347 348 346 339 327 309 295 302 15 31 41 66 120 154 162 179 206 218 221 219 214 209 206 205 209 212 207 198 195 196 195 187 177 177 183 186
190 179 164 157 155 137 114 103 92 83 75 69 64 61 57 51 49 51 53 53 51 46 39 34 30 24 17 16 20 26 32 39 46 49 49 46 42 37 32 26 17 6 355 350 347 343 340 339 343 348 349 349 349 343 330 311 291 305 20 64 83 95 111 122 134 164 199 215 216 213 213 216 218 219 222 218 209 203 197 189 186 186 187 189 194
97 132 130 123 117 110 104 98 92 86 82 77 71 68 64 59 57 59 60 58 55 50 43 37 32 25 20 22 30 40 45 44 43 43 45 48 50 49 46 42 38 35 29 22 17 11 3 359 358 356 351 344 345 350 354 359 9 22 60 93 84 78 85 95 108 135 168 205 222 223 225 228 228 233 243 243 236 233 226 216 213 212 206 199 199
81 97 105 105 103 102 99 95 91 86 82 77 73 71 68 65 66 68 64 61 58 53 47 42 33 27 26 29 36 43 47 45 40 38 39 42 45 46 46 43 39 35 33 31 30 28 27 26 26 27 27 25 25 29 37 45 51 53 56 59 57 55 60 74 98 126 144 160 192 239 246 241 235 238 244 247 250 252 245 232 225 223 219 213 207
101 98 97 98 98 96 92 87 83 81 79 75 71 69 67 67 68 68 65 62 58 52 46 41 33 28 30 35 42 48 50 46 42 40 39 38 39 41 42 42 40 36 34 32 32 34 39 46 50 52 54 53 53 54 56 60 64 63 61 61 62 61 61 62 61 62 81 176 208 222 232 233 233 233 236 241 247 251 250 246 242 238 234 226 213
99 92 89 88 88 87 84 80 79 78 77 73 69 66 65 64 63 61 59 58 55 50 44 36 28 26 28 33 40 46 47 43 40 40 39 38 38 38 39 41 42 42 42 41 40 44 52 58 60 60 61 59 57 56 56 58 60 60 58 55 54 51 49 47 44 40 35 4 237 225 221 220 222 226 231 238 243 245 247 248 244 236 232 231 228
94 89 86 84 84 83 81 78 75 73 70 69 68 66 64 62 59 57 55 53 52 50 46 37 28 25 27 32 39 43 42 40 38 36 34 34 35 36 36 39 43 47 51 55 57 59 63 66 64 64 64 63 61 60 59 58 58 57 55 51 47 44 39 34 29 28 29 25 296 243 239 234 228 227 232 238 243 246 245 244 241 237 236 237 236
92 89 86 84 83 82 80 77 74 70 67 67 68 65 63 63 59 55 53 52 50 49 47 42 37 32 29 32 38 41 41 40 40 38 36 34 33 33 33 35 38 45 53 58 60 61 63 64 64 63 63 62 61 60 59 58 56 55 52 49 45 41 35 29 24 19 15 13 0 260 245 245 243 242 245 247 249 249 245 242 242 237 230 227 223
93 89 86 84 81 78 77 75 73 70 67 66 65 63 62 63 61 57 54 52 50 49 48 45 44 42 36 34 37 40 42 43 44 42 40 38 37 36 36 36 36 40 47 54 58 59 59 60 60 59 58 57 56 55 54 53 52 51 48 46 44 40 34 28 23 19 14 10 6 344 273 251 247 250 253 252 250 247 244 241 239 231 224 225 224
93 89 87 85 82 79 77 75 74 72 69 66 66 64 62 61 61 59 57 57 55 53 50 46 45 45 42 40 39 38 40 43 44 43 42 40 39 39 41 42 43 43 45 51 56 57 58 59 58 57 55 53 51 50 48 46 45 44 41 40 39 36 31 25 22 20 18 14 11 7 355 310 268 258 255 251 244 240 238 235 235 234 234 237 238
93 91 89 88 86 84 83 81 79 78 74 71 69 66 64 64 64 63 62 62 59 54 50 47 46 46 45 45 44 41 39 41 43 43 42 41 40 41 43 46 49 49 50 54 56 56 56 56 54 53 51 49 46 44 42 40 37 35 33 30 28 26 23 20 18 18 17 16 14 13 9 358 337 307 280 261 248 241 236 232 231 235 240 245 249
95 94 92 91 90 90 90 90 91 90 87 82 78 75 72 71 69 68 66 64 61 58 55 52 51 50 50 50 50 49 47 47 46 44 42 40 40 42 44 46 49 51 52 54 54 53 52 50 48 45 44 41 38 35 33 30 28 26 23 21 18 15 12 11 11 11 12 11 10 11 9 2 356 349 338 317 287 264 250 239 231 229 233 239 245
98 97 95 94 93 92 93 95 97 99 97 92 86 83 81 77 73 70 66 62 58 55 53 53 54 53 51 51 51 50 50 50 49 46 43 41 39 40 42 44 47 51 53 52 51 49 47 47 45 42 39 35 32 29 26 23 20 16 13 10 7 3 1 2 2 2 3 3 3 4 3 360 357 355 352 348 340 320 287 263 249 243 240 239 242
97 96 94 92 91 91 90 90 90 93 97 96 91 87 83 78 75 71 63 55 51 48 45 46 48 45 45 52 58 55 52 53 52 50 47 44 42 41 42 42 44 48 50 49 45 42 42 44 43 39 35 30 27 24 21 17 14 11 8 5 0 357 355 354 353 353 355 355 355 355 355 354 353 351 349 348 347 344 335 316 289 268 256 250 247
96 95 93 91 89 86 83 81 82 87 95 99 96 87 77 72 74 75 67 57 55 56 56 57 57 55 55 63 67 61 56 55 53 50 47 44 41 40 41 41 42 45 46 45 41 39 39 39 35 30 26 23 21 19 17 13 10 8 6 3 0 358 356 354 351 349 349 349 349 349 349 348 347 347 346 346 344 341 339 337 327 306 282 265 256
Height
796 795 793 792 791 789 788 786 784 783 782 781 779 777 776 775 774 773 771 770 768 767 765 765 764 764 763 762 760 758 755 755 756 757 758 758 758 759 759 759 759 760 760 760 761 762 762 762 764 765 767 769 769 771 773 775 779 781 783 783 783 785 788 791 793 790 787 787 788 788 789 789 789 789 790 789 789 789 788 788 787 787 787 787 786
794 793 792 791 789 787 786 785 783 781 780 779 777 776 775 774 772 771 769 769 768 766 765 764 763 762 761 759 756 753 750 749 751 752 753 753 753 754 755 754 754 755 755 756 758 759 758 759 760 761 763 764 765 766 768 771 775 777 778 779 779 781 783 785 787 786 783 783 785 785 786 786 786 786 787 787 787 787 786 785 784 783 783 783 782
793 792 791 789 788 786 785 783 782 780 779 777 776 774 773 772 771 769 768 767 766 765 764 763 761 760 758 756 753 750 748 745 745 746 747 748 749 749 751 751 751 751 750 751 754 755 756 756 757 758 759 760 760 762 765 767 770 772 772 774 775 777 779 781 782 782 781 781 782 783 783 783 783 784 784 785 785 785 784 782 781 780 780 779 779
793 791 790 788 787 785 783 782 781 779 777 776 774 773 772 770 769 768 766 765 764 763 762 761 759 757 755 753 750 747 745 743 742 742 742 743 743 744 746 747 748 747 746 747 749 751 751 752 753 754 756 757 757 759 761 763 765 767 768 770 771 773 776 778 780 780 781 780 779 779 780 780 781 781 782 782 782 782 781 780 779 777 777 777 776
792 791 789 788 786 784 783 781 779 778 776 775 773 772 771 769 767 766 765 763 762 761 760 758 756 754 752 749 747 744 742 741 741 739 739 739 739 740 741 742 742 741 741 742 743 745 746 746 747 749 752 753 753 755 757 758 759 762 763 765 767 769 771 774 777 777 778 778 776 775 776 777 778 778 779 779 779 779 778 777 776 775 774 774 774
791 790 789 787 786 784 782 780 779 777 776 774 772 771 770 769 767 765 763 762 761 760 758 756 754 752 749 746 743 741 739 738 737 737 737 737 736 736 736 736 736 736 735 735 736 738 739 739 741 743 745 746 747 750 752 754 755 757 758 760 762 765 768 771 773 774 775 774 772 771 772 773 774 775 775 776 776 775 775 774 774 773 772 771 771
789 789 788 786 785 784 782 780 778 776 775 773 772 770 769 768 765 764 762 761 760 759 757 755 752 750 747 744 741 738 736 735 734 734 734 734 733 732 731 731 731 730 729 728 729 730 730 732 734 736 738 739 741 744 746 749 750 752 753 755 757 760 763 767 769 770 770 769 768 768 768 770 771 771 771 773 773 772 772 771 770 770 769 768 768
788 787 786 785 784 782 781 780 778 776 774 773 771 770 768 767 765 763 761 760 759 758 755 753 750 747 745 742 739 736 734 733 732 731 731 730 730 728 727 726 725 724 723 721 722 722 722 723 726 729 731 733 734 737 739 742 744 746 748 750 752 754 758 762 764 766 767 766 766 766 766 767 767 767 768 769 769 768 768 769 768 766 766 766 766
787 786 784 783 782 781 780 778 777 775 774 772 770 769 767 766 763 761 760 759 758 756 755 752 749 745 743 740 738 736 733 731 730 729 729 727 726 724 722 721 719 717 715 713 713 714 714 716 718 721 724 726 728 730 733 735 738 741 743 745 747 750 753 756 759 761 763 763 763 763 764 764 763 763 765 765 765 765 765 766 765 763 763 763 763
785 784 783 782 781 779 778 777 776 775 773 771 769 768 766 765 762 760 759 758 757 755 754 751 748 745 741 739 737 734 733 731 729 728 726 724 722 720 718 715 713 711 708 705 705 705 707 708 710 713 717 720 722 724 727 730 732 735 738 740 742 745 748 751 754 756 758 759 759 760 761 760 758 759 761 761 762 762 762 762 762 761 762 761 760
784 783 782 780 779 778 777 776 775 774 772 770 768 767 765 763 761 759 758 756 755 754 752 750 747 744 741 738 735 733 732 731 729 726 723 721 718 716 713 710 707 705 701 699 698 699 701 703 705 708 711 714 717 720 722 725 728 731 734 736 737 739 742 745 749 751 753 754 754 756 757 755 754 756 758 758 759 759 759 759 759 759 760 760 759
784 782 780 780 778 776 776 774 773 772 770 769 767 766 765 763 760 759 756 755 754 752 750 749 746 743 740 737 734 732 731 729 727 724 721 717 714 711 708 705 703 700 696 694 694 695 696 699 700 703 706 710 713 716 719 722 725 728 731 732 734 735 737 739 742 745 747 749 750 752 752 751 751 753 754 755 755 755 755 756 756 757 758 758 757
783 781 779 779 777 775 774 773 772 771 769 767 766 764 763 762 759 757 755 753 752 750 748 747 745 742 739 736 734 732 730 728 725 721 717 713 710 706 703 701 699 696 693 690 691 692 693 695 697 700 703 707 710 713 716 719 723 725 728 729 731 732 733 735 738 740 742 744 746 747 747 748 748 749 751 751 752 752 752 753 753 754 756 756 754
782 780 779 778 776 774 773 771 770 769 767 766 764 763 762 760 758 756 753 751 750 748 747 745 743 741 739 736 734 732 730 727 723 719 715 710 706 703 700 698 696 694 691 689 689 690 691 693 694 697 701 705 708 711 713 717 720 722 724 725 727 728 730 732 734 737 740 741 741 742 744 744 745 746 748 749 750 750 750 750 751 752 754 753 752
780 779 778 776 775 773 771 770 769 768 766 764 762 761 760 758 756 754 752 750 749 747 746 744 743 741 739 737 735 733 731 728 723 719 714 708 704 701 698 697 695 693 691 690 689 690 690 691 693 696 700 703 706 709 712 715 717 719 721 722 723 725 727 729 730 733 737 739 739 740 741 742 743 745 746 747 748 748 748 749 750 751 752 752 752
779 778 777 776 774 772 770 769 768 766 765 763 761 760 759 757 755 753 750 748 747 746 745 744 742 741 739 737 735 733 731 728 723 719 713 707 702 699 697 695 694 694 693 692 691 691 691 692 694 696 700 702 705 707 710 713 715 717 718 719 721 723 724 726 727 730 733 736 738 739 739 740 742 743 744 745 746 747 747 748 749 750 750 751 752
778 777 776 775 773 771 769 768 766 765 764 762 760 759 757 756 754 752 749 747 746 745 744 743 742 740 739 737 735 733 731 728 724 720 714 708 703 700 698 695 694 695 695 693 693 693 693 694 695 698 700 702 705 707 709 712 713 714 715 716 718 720 721 723 726 729 732 735 736 737 737 738 740 741 743 744 744 745 746 748 748 748 749 750 751
776 776 775 774 772 770 769 767 765 763 762 761 759 758 756 755 753 751 749 747 745 744 743 743 742 740 739 737 735 733 732 729 726 722 717 712 707 704 700 697 697 697 696 695 695 694 695 696 697 699 701 703 705 707 709 711 711 712 712 714 715 717 720 723 725 728 731 732 733 733 734 736 738 740 742 743 743 743 744 745 746 747 748 750 750
775 774 773 772 771 770 768 766 764 762 761 760 758 757 755 754 752 751 749 747 745 743 743 743 742 741 739 737 735 734 733 731 728 725 720 716 712 708 704 702 701 700 699 698 697 695 696 697 698 700 702 703 704 706 708 710 711 711 712 714 715 717 721 723 725 726 728 728 729 731 733 735 737 739 740 741 742 742 743 744 745 746 747 748 749
773 772 772 770 769 768 766 765 763 761 760 759 758 757 755 753 752 750 749 748 745 743 742 742 742 741 740 738 736 735 733 732 730 727 724 721 717 712 709 707 706 704 702 701 700 699 699 700 700 702 704 704 706 707 709 711 712 713 714 715 716 718 720 721 723 724 725 727 728 730 732 735 737 738 739 740 740 741 742 743 744 745 746 747 747
771 771 770 769 768 767 765 764 762 760 760 759 757 756 755 753 752 750 749 748 746 744 743 742 742 740 739 738 737 735 734 733 731 729 727 724 720 717 715 713 711 709 707 705 704 704 703 704 706 707 707 708 709 710 711 712 713 714 715 715 716 717 718 720 722 724 725 727 728 730 732 734 736 737 738 738 739 739 740 741 742 743 744 745 745
769 769 769 768 767 765 764 763 761 760 759 758 757 756 754 753 752 750 749 748 746 745 744 742 741 740 738 738 736 735 734 733 731 730 729 727 725 722 720 718 715 714 712 711 710 710 709 710 711 711 711 711 712 712 713 714 714 715 716 716 717 718 719 721 723 724 725 726 728 730 731 733 734 735 736 737 737 738 738 739 740 741 742 743 743
768 768 767 767 766 764 763 762 760 759 759 758 757 756 755 753 752 750 749 748 747 746 744 743 741 739 737 737 736 735 734 733 731 730 729 728 727 725 723 721 719 717 716 716 717 716 716 716 715 714 714 714 714 715 715 716 717 717 718 718 719 720 721 722 723 723 725 727 728 730 731 732 733 734 736 736 736 737 737 737 738 739 740 741 742
766 766 766 765 765 764 762 761 760 759 758 757 757 756 755 754 752 751 750 748 747 745 744 743 742 740 738 736 735 734 733 732 731 730 729 728 727 726 725 723 722 720 719 719 719 719 719 719 718 717 717 717 718 718 719 719 720 720 721 721 721 722 723 725 725 725 726 727 728 729 730 731 732 733 734 735 735 736 736 737 737 737 738 739 740
764 764 764 764 763 762 761 760 760 758 757 757 756 755 754 753 752 751 749 748 746 745 743 742 741 740 738 736 735 734 733 732 731 730 729 729 728 727 726 725 724 723 722 721 721 721 721 721 721 720 720 721 721 721 722 722 722 723 724 724 724 725 726 727 727 727 727 727 728 729 730 731 732 733 733 734 735 735 736 736 736 736 737 738 739
761 762 763 763 762 761 760 760 759 758 757 756 755 754 753 752 751 750 748 747 746 744 743 742 741 739 738 736 735 734 733 732 732 730 729 729 728 727 726 725 724 724 723 723 723 723 723 723 723 723 723 723 723 724 724 725 725 725 726 727 727 728 728 728 729 728 727 727 729 729 730 731 732 732 733 734 735 735 736 736 736 736 736 737 739
759 761 762 762 761 760 759 759 759 758 756 755 754 753 753 752 751 750 748 746 745 744 742 741 740 739 737 736 735 734 733 732 732 731 730 729 728 727 726 726 725 725 724 724 724 723 724 724 724 724 724 724 725 726 726 727 727 727 727 728 729 730 730 730 731 729 728 728 729 730 730 731 732 732 733 734 735 736 737 737 737 737 737 738 740
759 760 760 761 760 759 759 759 758 757 756 755 754 753 752 751 750 749 748 746 745 743 742 740 739 738 737 736 735 733 733 732 731 731 730 729 728 727 727 726 726 726 725 725 724 724 724 724 724 724 725 725 726 726 727 728 728 728 728 728 729 729 729 730 730 729 729 729 729 730 731 731 732 733 733 734 735 736 737 738 738 738 738 739 740
758 759 759 759 759 758 758 758 757 756 755 754 753 752 751 750 749 748 747 746 745 743 741 740 739 738 737 736 735 733 732 732 731 731 730 729 729 728 727 726 726 726 726 726 725 725 725 725 725 725 725 725 726 727 727 728 728 729 729 729 729 729 729 729 729 729 729 729 730 730 731 732 733 733 734 735 736 736 737 738 739 739 739 739 739
757 758 758 758 758 757 757 757 756 755 754 753 752 751 750 750 749 747 746 745 744 743 742 740 739 738 737 736 735 733 732 732 731 731 730 730 729 728 728 727 727 726 726 726 726 726 726 725 725 725 725 726 726 727 727 728 728 729 729 729 729 729 729 729 729 729 730 730 730 731 732 733 734 734 735 735 736 737 737 738 738 739 739 739 739
757 757 756 757 756 756 756 756 755 754 753 752 751 750 749 748 748 747 746 745 743 743 741 739 738 737 736 735 734 734 733 732 731 731 730 730 730 729 729 728 727 727 727 727 727 727 726 726 726 726 726 727 727 727 727 727 727 728 728 728 729 729 729 730 730 730 730 730 731 731 732 733 734 735 735 736 736 737 737 737 738 738 739 739 739
755 755 755 755 755 754 754 754 753 752 751 751 750 749 748 747 746 745 744 744 743 742 740 739 738 736 735 735 734 734 733 732 732 731 730 730 730 729 729 729 728 728 728 727 727 727 727 727 727 727 727 727 727 727 727 726 726 727 727 727 728 728 728 729 729 730 731 731 731 732 732 733 734 735 735 736 736 736 736 737 737 738 738 739 740
754 754 754 754 753 753 753 752 752 751 750 749 749 748 748 747 745 744 743 742 742 741 740 739 738 737 735 734 733 733 733 732 732 731 730 730 729 729 729 729 729 728 728 728 728 728 728 728 728 728 728 727 727 726 726 725 725 726 726 726 727 726 727 728 728 729 730 731 731 732 732 733 733 734 735 735 735 736 736 736 737 737 738 739 740
752 752 752 752 751 752 751 750 750 749 749 749 748 748 747 746 745 743 742 741 741 740 740 739 738 737 736 734 733 732 732 732 732 731 731 730 729 729 729 728 728 728 729 728 728 728 728 728 728 727 727 727 726 726 725 724 724 724 725 725 725 725 725 726 727 728 729 730 731 732 732 733 733 733 734 734 734 735 735 735 736 737 737 738 739
749 749 750 750 749 750 750 749 749 748 748 748 748 747 746 745 744 743 743 742 741 741 740 739 738 737 736 735 734 733 732 731 731 731 730 730 730 729 728 728 728 728 728 728 728 728 728 728 727 727 726 726 725 725 725 724 724 724 723 724 724 725 725 725 725 726 728 729 730 731 731 732 733 733 734 734 734 735 735 735 736 736 737 738 739
747 747 747 748 748 749 748 748 748 748 748 747 747 747 746 744 743 743 743 743 743 742 741 741 739 738 737 735 734 733 732 731 730 730 730 730 730 729 729 728 727 727 727 727 727 727 727 727 726 726 725 725 724 725 725 724 724 723 723 723 724 724 724 724 725 726 727 728 729 730 731 731 732 732 733 733 733 734 734 734 735 735 736 737 738
745 745 745 746 747 747 747 747 747 747 747 747 747 746 745 744 744 743 743 743 743 743 743 742 740 738 737 735 734 734 733 732 731 731 730 730 729 729 729 728 728 728 727 727 727 727 726 726 726 725 725 724 723 724 724 724 724 723 723 723 724 724 724 724 725 725 726 727 728 729 729 730 731 731 731 732 732 733 733 733 734 735 735 736 737
743 744 744 745 745 746 746 747 747 747 747 747 747 746 746 745 744 744 744 744 744 744 744 743 741 740 739 737 735 734 733 733 732 731 730 730 729 729 729 728 728 729 728 727 727 727 726 725 725 725 724 724 723 723 723 723 723 723 723 723 724 724 725 725 725 725 726 726 727 728 728 729 729 730 730 731 731 732 732 733 733 734 735 735 736
744 745 745 744 744 745 746 746 747 747 747 747 747 746 746 746 745 745 746 746 746 746 745 745 744 744 742 740 738 735 734 733 733 733 732 731 730 730 730 730 729 729 728 728 727 727 726 726 726 725 725 724 724 723 723 723 723 724 724 724 724 724 725 725 725 725 725 726 726 727 727 728 728 729 729 729 730 731 731 732 732 733 734 734 735
746 748 748 746 745 746 746 746 747 747 747 748 748 747 747 747 747 747 748 748 748 748 748 748 747 747 745 743 740 738 737 736 737 736 735 734 734 733 732 732 731 731 730 729 728 728 727 727 726 726 725 725 724 724 724 724 724 725 725 725 725 725 725 725 725 725 725 725 726 726 726 727 727 728 728 728 729 729 730 731 731 732 732 733 734
747 748 748 747 746 746 746 747 748 748 748 749 749 748 749 749 749 750 750 750 750 751 750 750 750 750 748 746 743 741 740 740 740 740 739 738 737 736 736 735 735 733 733 732 730 729 728 727 727 726 726 726 726 726 725 724 724 725 725 725 725 725 725 725 726 726 726 726 726 726 726 726 727 727 727 728 728 729 729 730 730 731 731 732 732
746 748 748 748 748 748 749 750 751 750 750 750 750 751 751 751 751 752 752 752 752 753 753 753 753 752 750 749 746 744 743 743 743 743 742 741 741 740 739 738 737 736 735 734 733 732 730 729 728 728 727 727 727 727 726 726 726 726 726 726 726 726 726 726 726 726 726 726 727 726 726 727 727 727 727 727 727 727 728 728 729 729 730 730 731
747 747 748 749 750 750 752 753 753 752 752 752 752 753 753 753 753 754 754 754 755 755 755 755 755 754 753 751 749 747 747 747 746 746 745 745 744 743 742 741 740 739 738 737 736 735 734 732 731 731 730 730 730 729 729 729 729 728 728 727 727 727 727 727 726 726 725 726 726 726 727 726 726 726 726 726 726 726 726 727 727 727 728 728 729
748 749 751 752 752 753 754 754 754 754 755 755 755 755 755 755 755 755 755 755 756 756 757 757 757 756 755 753 751 750 750 750 750 749 748 747 746 745 744 744 743 742 741 739 738 737 736 735 735 735 734 734 734 733 732 732 731 730 730 729 729 729 729 728 728 727 726 725 725 725 726 726 726 725 725 725 725 725 725 725 726 726 727 727 727
750 751 753 754 754 755 756 756 756 756 756 756 756 756 756 756 756 756 756 757 757 758 758 758 758 758 757 756 755 754 753 753 753 752 751 750 749 748 747 746 745 744 744 742 740 739 738 738 738 738 737 737 737 736 736 735 734 733 733 732 731 731 732 732 731 730 728 727 725 725 725 725 725 725 724 724 724 724 724 724 725 725 726 726 726
752 753 754 755 756 757 758 758 759 758 758 758 758 758 758 757 757 758 759 759 759 759 760 760 760 759 759 758 758 757 756 756 755 754 753 752 751 750 749 748 747 747 746 745 743 742 741 740 740 739 739 739 739 738 738 738 737 736 736 736 735 735 734 734 733 731 730 728 727 725 725 724 724 724 724 723 723 723 723 723 724 724 725 725 726
753 754 756 757 758 759 760 761 761 761 761 761 761 760 760 760 760 760 761 761 761 761 761 761 761 761 761 761 761 760 759 758 757 756 755 755 754 753 752 750 749 749 748 747 746 745 744 743 742 741 741 740 740 739 739 739 738 738 738 737 737 736 735 735 734 733 731 730 728 727 726 725 725 724 724 723 723 723 722 722 722 723 724 725 725
755 757 758 759 760 761 762 762 763 763 763 763 763 762 762 762 762 762 763 763 763 763 763 763 763 763 762 762 762 762 761 760 759 758 758 757 756 755 754 752 751 750 750 749 748 747 746 745 744 743 742 741 740 740 740 739 739 738 738 737 737 736 736 735 735 733 732 731 729 728 727 726 726 725 724 723 723 723 722 722 721 722 722 723 724
757 759 760 761 762 763 763 763 764 764 764 764 764 764 764 764 764 764 764 765 765 765 765 765 764 764 764 764 764 763 762 761 760 760 759 759 758 757 756 754 753 752 751 751 750 749 748 747 746 745 744 743 742 741 741 740 739 738 737 737 737 736 735 735 734 733 732 731 730 729 728 727 726 726 724 723 722 722 722 721 721 721 721 721 722
760 760 761 762 763 763 764 764 764 764 765 765 765 765 765 766 766 766 766 766 766 766 766 766 766 765 765 765 765 764 763 762 761 761 760 760 760 758 757 756 755 754 753 753 752 750 750 749 748 747 746 744 743 743 742 741 740 739 738 738 737 735 734 734 733 732 732 730 729 728 728 727 726 726 724 723 722 721 720 720 719 719 719 719 719
761 762 763 763 764 764 764 764 765 765 766 766 766 766 767 767 767 767 768 768 767 767 767 766 766 766 766 766 766 765 764 764 763 762 762 761 760 759 758 758 757 756 755 755 753 752 751 751 749 748 747 746 745 744 743 742 741 740 739 738 736 735 734 733 732 731 731 730 728 727 726 726 725 725 724 723 722 721 720 719 718 717 717 717 717